Regional Weather Roundup
Issued by NWS

Home | Current Version | Previous Version | Graphics & Text | Print | Product List | Glossary On
Versions: 1 2 3 4 5 6 7 8 9 10 11 12 13 14 15 16 17 18 19 20 21 22 23 24 25 26 27 28 29 30 31 32 33 34 35 36 37 38 39 40 41 42 43 44 45 46 47 48 49 50
000
ASUS43 KTOP 190859
RWRKS

WEATHER ROUNDUP FOR KANSAS
NATIONAL WEATHER SERVICE GOODLAND KS
300 AM CST SUN FEB 19 2017

NOTE:  "FAIR" INDICATES FEW OR NO CLOUDS BELOW 12,000 FEET WITH NO
SIGNIFICANT WEATHER AND/OR OBSTRUCTIONS TO VISIBILITY.

KSZ001>006-013>018-027>032-041>047-191000-
NORTHWEST KANSAS

CITY           SKY/WX    TMP DP  RH WIND       PRES   REMARKS
GOODLAND       CLOUDY    47  34  60 S17       29.71F
HAYS           CLOUDY    44  43  96 CALM      29.83S FOG
HILL CITY      CLEAR     46  43  89 S5        29.80S
RUSSELL        PTCLDY    48  45  89 S12       29.82R
$$

KSZ061>065-074>080-084>089-191000-
SOUTHWEST KANSAS

CITY           SKY/WX    TMP DP  RH WIND       PRES   REMARKS
DODGE CITY     PTCLDY    46  45  96 S13       29.81F FOG
ELKHART          N/A     42  34  73 S9          N/A
GARDEN CITY    PTCLDY    40  38  93 SE7       29.80S
GREAT BEND     PTCLDY    47  45  93 S10       29.84S
LIBERAL        PTCLDY    46  39  76 SE7       29.80F
$$

KSZ066>073-081>083-090>101-191000-
SOUTHEAST KANSAS

CITY           SKY/WX    TMP DP  RH WIND       PRES   REMARKS
CHANUTE        FOG       42  41  96 SE6       29.91S VSB 1/4
COFFEYVILLE    FOG       38  38 100 E3        29.91R VSB 1/4
HUTCHINSON     PTCLDY    45  44  97 S7        29.87R
MEDICINE LODGE   N/A     47  45  93 SE8       29.84F
NEWTON         PTCLDY    46  45  96 S8        29.89R
PARSONS        FOG       38  37  97 E5        29.91S VSB 1/2
WICHITA INTL   PTCLDY    43  42  97 S5        29.88R
WICHITA JABRA  PTCLDY    46  46 100 S8        29.88R
WINFIELD       CLEAR     48  46  93 S5        29.90R
$$

KSZ007>012-019>026-033>040-048>060-102>105-191000-
NORTHEAST KANSAS

CITY           SKY/WX    TMP DP  RH WIND       PRES   REMARKS
CONCORDIA      CLOUDY    51  47  86 S16       29.85R
EMPORIA        FOG       43  43 100 S5        29.89R VSB 1/2
LAWRENCE       PTCLDY    41  41 100 E6        29.90S FOG
MANHATTAN      MOCLDY    47  44  90 CALM      29.87R
OLATHE IND     CLEAR     46  46 100 S5        29.91S FOG
OLATHE EXE     CLEAR     46  46 100 CALM      29.90S FOG
SALINA         CLEAR     51  47  86 S8        29.87R
TOPEKA BILLARD CLEAR     45  42  89 E7        29.86F
TOPEKA FORBES  PTCLDY    47  45  93 SE8       29.86F FOG
$$



USA.gov is the U.S. government's official web portal to all federal, state and local government web resources and services.